Regional Weather Roundup
Issued by NWS Albany, NY

Home | Current Version | Previous Version | Text Only | Print | Product List | Glossary On
Versions: 1 2 3 4 5 6 7 8 9 10 11 12 13 14 15 16 17 18 19 20 21 22 23 24 25 26 27 28 29 30 31 32 33 34 35 36 37 38 39 40 41 42 43 44 45 46 47 48 49 50
000
ASUS41 KALY 291810
RWRALY

NEW YORK STATE HOURLY WEATHER ROUNDUP
NATIONAL WEATHER SERVICE ALBANY NY
200 PM EDT FRI AUG 29 2014

NOTE: "FAIR" INDICATES FEW OR NO CLOUDS BELOW 12,000 FEET WITH NO
SIGNIFICANT WEATHER AND/OR NO OBSTRUCTIONS TO VISIBILITY.

NYZ032-033-038>043-046>054-057>066-NYZ062>081-291900-
EAST


CITY           SKY/WX    TMP DP  RH WIND       PRES   REMARKS
ALBANY         MOSUNNY   74  53  48 NW8       30.19F
GLENS FALLS    PTSUNNY   72  56  57 MISG      30.19F
POUGHKEEPSIE   MOSUNNY   76  53  44 W7        30.18S
NEWBURGH       MOSUNNY   73  55  53 VRB5      30.20F
MONTGOMERY     SUNNY     77  50  38 MISG      30.18F
WHITE PLAINS   MOSUNNY   75  52  44 SW6       30.18F
ISLIP          MOSUNNY   76  49  38 VRB3      30.17S
NEW YORK CITY  MOSUNNY   75  49  39 NE7       30.18S
CENTRAL PARK   SUNNY     78  49  35 CALM      30.20F
$$

NYZ005>009-017-018-044>046-055-056-291900-
CENTRAL


CITY           SKY/WX    TMP DP  RH WIND       PRES   REMARKS
FULTON         MOSUNNY   72  53  51 CALM      30.19F
SYRACUSE       MOSUNNY   74  53  48 N6        30.19F
ROME           SUNNY     71  53  52 S6        30.21S
ELMIRA         MOSUNNY   73  52  47 N3        30.18F
BINGHAMTON     SUNNY     68  51  54 SE7       30.21F
MONTICELLO     SUNNY     70  48  46 SW6       30.22S
$$

NYZ026>034-041>043-291900-
NORTH


CITY           SKY/WX    TMP DP  RH WIND       PRES   REMARKS
WATERTOWN      MOSUNNY   72  54  53 W10       30.19F
FORT DRUM      NOT AVBL
MASSENA        MOSUNNY   72  57  59 NW5       30.20F
SARANAC LAKE   PTSUNNY   70  49  47 MISG      30.19F
PLATTSBURGH    SUNNY     67  56  67 NE7       30.20F
$$

NYZ001>004-010>016-019>021-291900-
WEST


CITY           SKY/WX    TMP DP  RH WIND       PRES   REMARKS
NIAGARA FALLS  PTSUNNY   75  53  46 S7        30.17S
BUFFALO        PTSUNNY   74  50  42 CALM      30.17F
DUNKIRK        MOSUNNY   72  53  51 N9        30.16F
JAMESTOWN      MOSUNNY   66  50  55 SE6       30.19F
WELLSVILLE     MOSUNNY   68  50  52 VRB3      30.22F
ROCHESTER      PTSUNNY   74  51  44 NE5       30.18F
PENN YAN       CLOUDY    71  54  54 VRB5      30.20F
$$

             KEY
       WCI = WIND CHILL INDEX
       VSB = VISIBILITY
       HX  = HEAT INDEX
$$


USA.gov is the U.S. government's official web portal to all federal, state and local government web resources and services.